Iwojima, Japan

8:58 AM JST on April 25, 2018 (GMT +0900)
Iwojima Aero

Weather History for RJAW - December, 2013

Change the Weather History Date:

Wednesday, December 11, 2013

  Actual Average Record
Temperature  
Mean Temperature 71 °F -  
Max Temperature 73 °F 71 °F 80 °F (1998)
Min Temperature 69 °F 66 °F 62 °F (1996)
Cooling Degree Days 6    
Growing Degree Days 21 (Base 50)    
Moisture  
Dew Point 62 °F    
Average Humidity 72    
Maximum Humidity 88    
Minimum Humidity 60    
Precipitation  
Precipitation 0.00 in - - ()
Sea Level Pressure  
Sea Level Pressure 29.87 in    
Wind  
Wind Speed 7 mph ()    
Max Wind Speed 10 mph    
Max Gust Speed -    
Visibility 6.1 miles    
Events      
Averages and records for this station are not official NWS values.
T = Trace of Precipitation, MM = Missing Value Source: Averaged Metar Reports

Daily Weather History Graph

Daily Weather History Graph

Search for Another Location

Airport or City:

Astronomy

Dec. 11, 2013 Rise Set
Actual Time 7:08 AM ChST 5:46 PM ChST
Civil Twilight 6:44 AM ChST 6:11 PM ChST
Nautical Twilight 6:15 AM ChST 6:40 PM ChST
Astronomical Twilight 5:47 AM ChST 7:08 PM ChST
Moon 1:30 PM ChST (12/11) 1:22 AM ChST (12/11)
Length of Visible Light 11h 27m
Length of Day
10h 37m
Waxing Gibbous, 65% of the Moon is Illuminated
Dec 11
Waxing Gibbous
Dec 17
Full
Dec 25
Last Quarter
Jan 1
New
Jan 8
First Quarter

Hourly Weather History & Observations

Time (ChST) Temp. Dew Point Humidity Pressure Visibility Wind Dir Wind Speed Gust Speed Precip Events Conditions
1:00 AM 69.8 °F 64.4 °F 83% 29.80 in 6.2 mi North 10.4 mph - N/A   Mostly Cloudy
4:00 AM 69.8 °F 66.2 °F 88% 29.80 in 6.2 mi North 10.4 mph - N/A   Mostly Cloudy
6:00 AM 69.8 °F 64.4 °F 83% 29.83 in 6.2 mi North 10.4 mph - N/A   Mostly Cloudy
7:00 AM 69.8 °F 62.6 °F 78% 29.86 in 5.0 mi North 8.1 mph - N/A   Mostly Cloudy
8:00 AM 69.8 °F 64.4 °F 83% 29.86 in 6.2 mi NNE 6.9 mph - N/A   Mostly Cloudy
9:00 AM 71.6 °F 62.6 °F 73% 29.86 in 6.2 mi NNE 5.8 mph - N/A   Mostly Cloudy
10:00 AM 71.6 °F 60.8 °F 69% 29.89 in 6.2 mi NNE 4.6 mph - N/A   Mostly Cloudy
11:00 AM 71.6 °F 60.8 °F 69% 29.89 in 6.2 mi North 5.8 mph - N/A   Mostly Cloudy
11:48 AM 71.6 °F 60.8 °F 69% 29.89 in 6.2 mi North 5.8 mph - N/A   Mostly Cloudy
12:00 PM 71.6 °F 60.8 °F 69% 29.89 in 6.2 mi North 5.8 mph - N/A   Mostly Cloudy
1:00 PM 73.4 °F 62.6 °F 69% 29.86 in 6.2 mi North 6.9 mph - N/A   Mostly Cloudy
1:25 PM 73.4 °F 59.0 °F 61% 29.86 in 6.2 mi North 8.1 mph - N/A   Mostly Cloudy
2:00 PM 73.4 °F 59.0 °F 61% 29.83 in 6.2 mi NNW 8.1 mph - N/A   Mostly Cloudy
3:00 PM 73.4 °F 59.0 °F 61% 29.86 in 6.2 mi NNW 8.1 mph - N/A   Mostly Cloudy
4:00 PM 71.6 °F 57.2 °F 60% 29.86 in 6.2 mi NW 8.1 mph - N/A   Mostly Cloudy
5:00 PM 71.6 °F 60.8 °F 69% 29.89 in 6.2 mi North 9.2 mph - N/A   Mostly Cloudy
6:00 PM 69.8 °F 60.8 °F 73% 29.89 in 6.2 mi North 5.8 mph - N/A   Mostly Cloudy
7:00 PM 69.8 °F 62.6 °F 78% 29.92 in 6.2 mi NNW 8.1 mph - N/A   Mostly Cloudy
10:00 PM 69.8 °F 60.8 °F 73% 29.95 in 6.2 mi North 6.9 mph - N/A   Scattered Clouds